Weather History for Nasa Shuttle, FL

Change the Weather History Date:

Sunday, September 22, 2013

  Actual Average Record
Temperature  
Mean Temperature 82 °F -  
Max Temperature 91 °F 83 °F 91 °F (2001)
Min Temperature 73 °F 71 °F 68 °F (2006)
Cooling Degree Days 16    
Growing Degree Days 32 (Base 50)    
Moisture  
Dew Point 73 °F    
Average Humidity 84    
Maximum Humidity 100    
Minimum Humidity 53    
Precipitation  
Precipitation 0.11 in - - ()
Sea Level Pressure  
Sea Level Pressure 29.82 in    
Wind  
Wind Speed 6 mph (WSW)    
Max Wind Speed 18 mph    
Max Gust Speed 29 mph    
Visibility 10 miles    
Events Rain    
Averages and records for this station are not official NWS values.
T = Trace of Precipitation, MM = Missing Value Source: NWS Daily Summary

Daily Weather History Graph

Daily Weather History Graph

Search for Another Location

Airport:

Trip Planner

Search our weather history database for the weather conditions in past years. The results will help you decide how hot, cold, wet, or windy it might be!

Date:

Astronomy

Sep. 22, 2013 Rise Set
Actual Time 7:11 AM EDT 7:18 PM EDT
Civil Twilight 6:47 AM EDT 7:42 PM EDT
Nautical Twilight 6:20 AM EDT 8:09 PM EDT
Astronomical Twilight 5:52 AM EDT 8:37 PM EDT
Moon 9:28 PM EDT (9/22) 10:11 AM EDT (9/22)
Length of Visible Light 12h 54m
Length of Day
12h 07m
Waning Gibbous, 89% of the Moon is Illuminated
Sep 22
Waning Gibbous
Sep 26
Last Quarter
Oct 4
New
Oct 11
First Quarter
Oct 18
Full

Hourly Weather History & Observations

Time (EDT) Temp. Heat Index Dew Point Humidity Pressure Visibility Wind Dir Wind Speed Gust Speed Precip Events Conditions
12:58 AM 75.9 °F - 71.2 °F 85% 29.83 in 10.0 mi South 2.3 mph - N/A   Clear
1:58 AM 75.7 °F - 71.4 °F 86% 29.82 in 8.0 mi SW 5.8 mph - N/A   Clear
2:58 AM 76.6 °F - 70.5 °F 81% 29.81 in 10.0 mi SSW 9.2 mph - N/A   Clear
3:58 AM 75.7 °F - 70.7 °F 84% 29.80 in 10.0 mi South 5.8 mph - N/A   Clear
4:58 AM 74.5 °F - 71.2 °F 90% 29.80 in 10.0 mi South 9.2 mph - N/A   Clear
5:58 AM 74.7 °F - 71.6 °F 90% 29.80 in 10.0 mi SSW 6.9 mph - N/A   Clear
6:58 AM 75.4 °F - 72.7 °F 91% 29.80 in 10.0 mi SW 6.9 mph - N/A   Clear
7:58 AM 76.3 °F - 73.8 °F 92% 29.81 in 10.0 mi SW 5.8 mph - N/A   Partly Cloudy
8:58 AM 79.0 °F - 74.5 °F 86% 29.82 in 10.0 mi SSW 9.2 mph - N/A   Scattered Clouds
9:58 AM 82.0 °F 88.1 °F 74.1 °F 77% 29.83 in 10.0 mi SSW 8.1 mph - N/A   Scattered Clouds
10:58 AM 85.1 °F 91.8 °F 73.0 °F 67% 29.82 in 10.0 mi SW 10.4 mph - N/A   Clear
11:58 AM 86.7 °F 92.9 °F 71.8 °F 61% 29.82 in 10.0 mi SSW 12.7 mph 18.4 mph N/A   Mostly Cloudy
12:58 PM 89.4 °F 96.8 °F 72.5 °F 57% 29.81 in 9.0 mi SW 11.5 mph - N/A   Partly Cloudy
1:58 PM 90.0 °F 95.9 °F 70.5 °F 53% 29.79 in 10.0 mi SW 11.5 mph 19.6 mph N/A   Clear
2:58 PM 90.1 °F 96.8 °F 71.4 °F 54% 29.78 in 10.0 mi SW 12.7 mph 17.3 mph N/A   Mostly Cloudy
3:58 PM 88.2 °F 94.6 °F 71.6 °F 58% 29.77 in 10.0 mi SW 5.8 mph - N/A   Mostly Cloudy
4:58 PM 85.8 °F 91.8 °F 71.8 °F 63% 29.79 in 10.0 mi West 6.9 mph - N/A   Scattered Clouds
5:16 PM 80.6 °F 85.4 °F 73.4 °F 79% 29.81 in 10.0 mi NNW 18.4 mph 28.8 mph N/A Rain Light Rain
5:58 PM 75.4 °F - 74.8 °F 98% 29.83 in 10.0 mi NNW 10.4 mph - 0.10 in Rain Rain
6:40 PM 75.2 °F - 75.2 °F 100% 29.81 in 10.0 mi NNW 5.8 mph - N/A   Clear
6:58 PM 75.4 °F - 75.0 °F 99% 29.81 in 10.0 mi NNW 5.8 mph - 0.01 in   Scattered Clouds
7:58 PM 75.4 °F - 75.0 °F 99% 29.83 in 10.0 mi WNW 2.3 mph - N/A   Mostly Cloudy
8:06 PM 75.2 °F - 75.2 °F 100% 29.83 in 10.0 mi WSW 2.3 mph - N/A   Light Drizzle
8:13 PM 75.2 °F - 75.2 °F 100% 29.83 in 10.0 mi WSW 2.3 mph - N/A   Overcast
8:58 PM 75.0 °F - 74.7 °F 99% 29.85 in 10.0 mi WNW 2.3 mph - 0.00 in   Mostly Cloudy
9:58 PM 74.8 °F - 74.7 °F 99% 29.87 in 10.0 mi WNW 1.2 mph - N/A   Mostly Cloudy
10:58 PM 73.6 °F - 73.2 °F 99% 29.87 in 10.0 mi Calm Calm - N/A   Clear
11:58 PM 73.0 °F - 73.0 °F 100% 29.88 in 10.0 mi Calm Calm - N/A   Clear